This demonstration page uses our WeatherBlox Daily Observations layout. Learn more.

41.55636, -103.73856

Hourly Observations for August 1, 2019

Temp ( °F °C ) Dew Point ( °F °C ) Humidity (%) Winds ( mph kmh ) Pressure ( in mb ) Visibility ( mi km ) Precip ( " mm )
12:53 am 00:53 Clear 73 22.8 68 20 84 84 E 6 9 29.97 1015 10 16.09344 0 0
1:53 am 01:53 Clear 73 22.8 68 20 84 84 E 9 15 29.97 1015 10 16.09344 0 0
2:53 am 02:53 Mostly Clear 70 21.1 68 20 93 93 ENE 6 9 29.94 1014 9 14.484096 0 0
3:53 am 03:53 Clear 69 20.6 68 20 96 96 E 5 7 29.94 1014 7 11.265408 0 0
4:53 am 04:53 Clear with Mist and Fog 69 20.6 67 19.4 93 93 E 6 9 29.94 1014 6 9.656064 0 0
5:53 am 05:53 Sunny with Mist and Fog 68 20 67 19.4 96 96 E 3 6 29.97 1015 6 9.656064 0 0
6:21 am 06:21 Mostly Cloudy with Mist and Fog 69 20.6 68 20 96 96 E 3 6 29.94 1014 5 8.04672 0 0
6:53 am 06:53 Mostly Cloudy with Mist and Fog 69 20.6 68 20 96 96 ESE 3 6 29.97 1015 5 8.04672 0 0
7:03 am 07:03 Mostly Cloudy with Mist and Fog 69 20.6 68 20 96 96 SW 3 6 29.94 1014 4 6.437376 0 0
7:11 am 07:11 Cloudy with Mist and Fog 69 20.6 67 19.4 93 93 S 5 7 29.94 1014 4 6.437376 0 0
7:31 am 07:31 Cloudy with Mist and Fog 70 21.1 68 20 93 93 S 5 7 29.94 1014 4 6.437376 0 0
7:53 am 07:53 Cloudy with Mist and Fog 70 21.1 68 20 93 93 Calm 30 1016 4 6.437376 0 0
8:24 am 08:24 Cloudy with Mist and Fog 72 22 68 20 88 88 N 5 7 29.91 1013 4 6.437376 0 0
8:33 am 08:33 Mostly Cloudy with Mist and Fog 72 22.2 68 20 87 87 NNE 5 7 29.94 1014 4 6.437376 0 0
8:53 am 08:53 Partly Cloudy with Mist and Fog 72 22.2 68 20 87 87 NE 7 11 30 1016 5 8.04672 0 0
9:08 am 09:08 Mostly Cloudy with Mist and Fog 72 22.2 69 20.6 91 91 ENE 5 7 29.94 1014 5 8.04672 0 0
9:42 am 09:42 Partly Cloudy with Mist and Fog 72 22 70 21 94 94 ESE 5 7 29.94 1014 5 8.04672 0 0
9:53 am 09:53 Partly Cloudy with Mist and Fog 73 22.8 69 20.6 87 87 ESE 6 9 30 1016 6 9.656064 0.001 0.001
10:09 am 10:09 Mostly Cloudy with Mist and Fog 73 22.8 69 20.6 87 87 E 7 11 29.94 1014 6 9.656064 0 0
10:18 am 10:18 Mostly Cloudy with Mist and Fog 73 23 70 21 89 89 E 8 13 29.94 1014 6 9.656064 0 0
10:53 am 10:53 Mostly Cloudy 75 23.9 70 21.1 84 84 SSE 6 9 30.03 1017 7 11.265408 0.001 0.001
11:07 am 11:07 Mostly Cloudy with Haze 76 24.4 70 21.1 82 82 S 7 11 29.91 1013 6 9.656064 0 0
11:17 am 11:17 Mostly Cloudy 77 25 70 21.1 79 79 VRB 5 7 29.91 1013 7 11.265408 0 0
11:39 am 11:39 Cloudy 77 25 69 20.6 77 77 ESE 6 9 29.91 1013 8 12.874752 0 0
11:53 am 11:53 Mostly Cloudy 79 26.1 69 20.6 72 72 VRB 5 7 30 1016 9 14.484096 0 0
12:10 pm 12:10 Partly Cloudy 81 27 70 21 70 70 ENE 8 13 29.85 1011 10 16.09344 0 0
12:53 pm 12:53 Mostly Sunny 82 27.8 68 20 63 63 E 9 15 30 1016 10 16.09344 0 0
1:53 pm 13:53 Mostly Sunny 84 28.9 67 19.4 57 57 VRB 5 7 29.97 1015 10 16.09344 0 0
2:53 pm 14:53 Mostly Cloudy 84 28.9 67 19.4 57 57 NNE 5 7 29.97 1015 10 16.09344 0 0
3:11 pm 15:11 Cloudy with Nearby Thunderstorms 86 30 65 18.3 49 49 Calm 29.8 1009 10 16.09344 0.001 0.001
3:53 pm 15:53 Partly Cloudy with Nearby Thunderstorms 79 26.1 65 18.3 62 62 SSE 17 28 29.97 1015 10 16.09344 0.001 0.001
4:02 pm 16:02 Partly Cloudy with Nearby Thunderstorms 81 27 64 18 58 58 SSE 15 24 29.85 1011 10 16.09344 0 0
4:25 pm 16:25 Sunny 79 26.1 63 17.2 58 58 SE 12 19 29.83 1010 10 16.09344 0 0
4:53 pm 16:53 Partly Cloudy 78 25.6 64 17.8 62 62 E 13 20 29.97 1015 10 16.09344 0 0
5:04 pm 17:04 Mostly Cloudy 77 25 64 18 65 65 ENE 18 30 29.88 1012 10 16.09344 0 0
5:53 pm 17:53 Cloudy 76 24.4 65 18.3 69 69 SE 12 19 29.97 1015 10 16.09344 0 0
6:53 pm 18:53 Sunny 74 23.3 62 16.7 67 67 E 7 11 29.97 1015 10 16.09344 0 0
7:53 pm 19:53 Sunny 72 22.2 64 17.8 76 76 SE 7 11 29.97 1015 10 16.09344 0 0
8:53 pm 20:53 Cloudy 71 21.7 66 18.9 84 84 SSE 6 9 30 1016 10 16.09344 0 0
9:53 pm 21:53 Cloudy 70 21.1 68 20 93 93 SE 7 11 30 1016 10 16.09344 0.01 0.254
10:53 pm 22:53 Cloudy 70 21.1 67 19.4 90 90 SE 6 9 30 1016 10 16.09344 0 0
11:53 pm 23:53 Cloudy 69 20.6 67 19.4 93 93 ENE 5 7 30 1016 10 16.09344 0 0

Powered by AerisWeather